Wind_Speed
26 26 26 26 26 26 26 26 26 26 27 28 29 30 29 29 28 26 25 24 22 21 22 24 26 27 28 30 32 33 34 34 34 35 37 39 40 40 41 41 41 41
24 25 25 25 25 25 25 26 26 25 26 28 29 29 28 28 26 25 24 23 22 21 21 21 23 24 26 28 29 32 34 35 34 33 34 36 38 39 39 39 39 39
22 23 23 24 24 24 25 25 25 24 25 26 27 27 26 26 24 23 22 22 21 20 20 21 22 23 25 26 28 29 31 32 32 32 31 32 35 36 37 37 36 36
21 21 21 22 23 24 25 25 25 24 24 25 25 24 24 24 22 21 21 21 20 20 20 20 21 22 24 25 26 27 28 28 28 30 30 29 31 33 34 34 34 34
19 20 20 20 21 22 23 24 23 22 23 23 23 22 22 22 20 20 20 20 20 19 18 18 18 19 20 21 23 23 24 25 25 26 28 27 27 28 31 32 32 32
18 18 18 19 19 20 20 21 20 20 20 20 19 19 19 19 18 18 18 18 19 19 17 17 16 16 17 17 18 18 19 21 22 23 25 26 25 25 28 29 30 30
16 16 16 15 16 17 17 17 17 17 17 16 16 16 16 16 16 15 16 17 17 17 17 16 16 16 16 16 15 15 16 18 19 20 22 23 24 24 25 27 28 29
15 14 13 12 12 13 13 14 14 14 14 13 13 13 14 14 14 14 15 16 16 17 17 17 17 17 17 17 16 15 16 17 18 18 19 19 20 22 24 26 28 28
13 12 11 10 9 9 9 10 11 12 12 11 11 11 12 13 13 14 14 15 16 17 18 18 18 19 19 18 17 16 17 17 17 17 17 17 18 19 21 24 26 28
12 11 10 9 8 8 7 7 7 8 8 8 9 10 12 12 13 14 14 15 16 17 18 18 18 18 18 18 17 16 15 16 15 15 15 15 16 17 18 20 23 25
11 10 10 9 8 7 7 6 6 6 6 6 6 7 9 10 10 11 12 13 13 14 14 15 15 14 14 14 14 14 13 13 12 12 13 13 13 14 15 16 19 21
11 10 10 9 8 7 7 6 6 7 7 6 5 5 6 7 8 8 9 9 9 10 10 10 11 11 11 10 10 10 10 10 9 10 11 12 13 12 12 13 14 16
11 10 10 9 9 8 7 6 6 6 7 7 6 5 5 5 6 7 7 7 7 8 8 9 9 9 8 8 7 6 7 7 8 8 9 10 10 10 9 9 9 10
12 11 10 9 9 8 7 6 6 6 6 7 7 6 5 4 6 7 7 6 7 7 8 8 9 9 8 8 7 6 5 5 5 6 6 6 6 6 6 7 7 7
13 12 11 10 9 8 8 7 6 6 6 7 8 8 6 5 5 6 6 7 7 7 7 7 8 8 8 8 7 6 5 4 3 3 2 3 4 6 7 8 9 9
14 13 12 12 11 10 9 8 7 6 6 7 8 8 8 7 6 6 6 6 6 6 6 6 6 6 6 6 6 5 4 4 3 2 2 3 4 6 7 8 9 9
14 14 13 12 12 11 11 10 9 7 7 8 8 9 8 8 8 7 6 6 6 6 6 5 5 5 4 4 4 4 3 3 3 3 4 4 4 6 7 8 9 9
15 14 14 13 12 12 11 11 11 10 9 9 9 9 8 8 8 8 7 6 6 6 6 6 5 5 4 4 4 3 3 3 3 4 4 4 5 6 7 9 10 11
16 15 14 13 13 12 12 12 12 11 10 10 10 10 9 8 8 8 7 7 7 6 6 5 5 4 4 3 3 3 3 3 4 4 4 5 6 8 9 10 11 12
16 16 15 14 13 12 12 12 12 12 11 11 10 10 9 9 8 7 7 6 6 5 5 4 4 3 3 3 4 3 3 3 4 4 4 6 9 11 12 12 13 14
16 16 15 14 13 13 13 12 13 12 11 11 10 10 9 8 7 7 6 5 4 4 4 4 4 4 4 4 4 4 4 4 4 5 6 9 11 12 13 14 15 16
16 16 15 14 13 13 13 12 12 12 11 10 10 9 8 7 6 6 5 5 4 4 4 4 4 5 5 5 5 5 5 5 6 7 9 11 12 14 15 17 17 18
16 16 15 14 13 13 13 12 12 11 11 9 8 8 7 6 6 5 5 5 5 5 5 5 5 6 6 6 6 6 7 8 9 10 11 13 14 16 18 19 20 21
15 15 14 14 13 13 13 12 11 11 10 9 7 7 6 6 5 5 5 5 6 6 5 6 6 7 7 8 8 9 9 10 11 12 14 15 17 18 20 21 22 23
14 14 14 14 14 13 13 12 11 10 10 8 7 6 6 6 6 6 6 6 6 7 7 7 8 8 9 10 10 11 12 13 14 15 16 17 19 20 21 22 24 25
13 13 14 14 14 13 12 12 11 10 9 8 7 7 6 6 6 6 6 6 6 7 8 8 9 10 11 11 12 13 14 15 16 17 18 19 20 21 23 24 25 26
Wind_Direction
282 280 278 277 276 274 273 272 271 268 267 267 269 271 273 276 279 283 282 277 274 273 271 269 267 265 261 258 260 262 265 267 267 266 265 263 260 257 254 252 249 249
282 280 278 276 274 273 271 270 270 269 267 266 267 269 271 274 277 280 277 274 274 273 272 270 269 268 267 265 264 265 267 268 266 265 263 262 261 259 257 255 253 252
285 282 279 277 274 271 269 268 269 268 266 265 266 267 269 272 275 275 272 271 272 273 272 271 270 270 270 269 268 268 269 269 267 262 259 259 259 259 259 258 257 256
291 287 283 279 275 271 269 268 268 267 265 265 265 265 266 269 270 269 266 267 269 271 273 273 273 272 271 270 270 271 271 270 267 262 256 254 255 257 259 259 259 258
296 293 290 284 277 272 269 267 266 265 264 265 264 263 264 266 266 264 261 262 265 269 271 272 273 274 273 272 273 274 273 270 267 262 255 250 249 253 257 258 259 260
299 299 297 290 281 274 269 266 264 263 263 263 263 261 262 264 264 262 258 258 261 266 268 269 271 273 273 275 277 279 278 273 269 264 256 249 245 246 251 255 258 259
301 302 301 295 286 276 270 266 264 263 263 262 261 260 261 263 264 261 257 257 260 263 266 267 269 271 272 275 278 282 282 279 275 270 262 255 248 244 245 249 253 256
303 304 305 304 297 285 274 267 264 263 263 262 261 261 262 263 263 261 259 258 259 262 264 266 267 269 271 274 277 280 282 280 278 275 271 265 257 251 247 246 248 252
306 307 308 311 311 304 290 277 269 265 263 262 263 262 263 263 262 261 261 261 261 262 263 265 267 268 271 274 277 279 280 280 279 278 275 270 265 259 254 251 250 251
312 314 314 316 319 317 312 303 293 283 274 269 267 266 266 266 266 266 266 266 267 268 270 271 273 274 274 276 278 280 282 282 282 283 280 275 270 265 261 258 257 256
316 319 321 324 327 326 323 325 324 315 305 294 284 280 280 278 277 276 275 274 274 275 277 279 281 283 282 281 282 284 286 287 289 291 291 289 285 279 273 267 263 262
314 317 321 326 332 335 335 339 340 329 319 315 310 303 298 293 290 287 284 282 282 283 286 289 290 291 290 287 287 290 295 299 303 305 305 305 304 301 295 286 277 272
309 312 316 321 325 330 335 343 349 340 328 326 325 323 320 311 306 301 296 293 292 292 295 297 297 298 297 297 302 307 307 308 308 308 308 309 311 314 315 312 306 299
303 305 308 312 315 319 325 332 342 340 330 327 327 330 339 337 321 315 314 312 307 302 300 301 302 304 304 306 311 313 308 303 301 301 305 311 322 337 352 2 6 5
296 297 298 300 303 306 310 315 324 326 322 319 318 322 335 342 334 326 326 327 324 318 313 309 307 307 307 307 310 311 308 307 306 309 322 339 357 14 24 31 33 33
291 290 290 291 292 295 296 299 304 308 308 308 309 315 324 329 331 332 332 334 334 331 328 323 318 312 308 306 309 310 314 323 334 3 30 27 21 23 29 34 35 33
289 287 285 285 284 285 286 286 288 290 291 294 299 305 311 314 318 323 324 325 327 326 326 325 324 320 314 309 309 313 323 337 354 18 35 42 40 33 29 27 23 19
287 284 282 279 278 277 277 277 276 277 278 281 287 293 297 300 304 308 309 312 314 315 316 318 321 324 323 320 323 331 341 349 356 9 23 34 38 29 18 13 10 6
285 283 280 276 273 271 270 270 270 270 270 273 279 285 291 293 296 297 299 304 307 310 313 317 322 327 326 324 325 332 336 339 348 1 12 15 9 5 1 358 357 355
282 280 278 274 269 267 266 266 267 267 267 269 273 280 287 291 293 294 296 300 304 307 311 314 320 323 319 312 310 314 322 327 336 347 353 351 350 350 350 349 347 345
279 276 273 270 266 264 263 263 265 267 267 267 271 276 282 286 288 289 291 294 296 299 302 305 308 311 307 302 300 301 307 313 320 326 333 336 339 340 340 339 337 335
276 273 269 266 264 262 262 261 263 266 267 267 269 273 276 278 278 276 276 280 285 289 294 298 301 303 302 297 294 293 297 302 308 314 319 324 327 329 330 330 329 328
274 271 268 266 265 263 262 261 262 265 267 266 265 267 267 263 261 261 263 270 277 283 290 296 299 301 302 299 294 292 294 297 302 306 310 315 318 321 323 324 325 325
273 271 269 267 266 265 262 261 261 263 265 263 259 255 252 248 247 255 264 273 280 287 294 299 303 305 305 303 299 296 296 297 300 304 308 311 315 318 320 321 322 322
272 270 269 268 267 264 262 260 260 259 260 259 252 241 237 237 239 249 262 272 282 291 300 306 309 311 311 308 306 303 301 301 303 306 309 312 314 316 317 318 318 318
269 269 268 267 265 262 259 257 255 253 251 248 244 236 234 239 244 251 259 267 274 284 296 305 310 313 314 313 312 310 309 309 310 311 312 313 313 313 313 313 313 314
Height
5752 5752 5751 5751 5750 5750 5750 5749 5749 5749 5748 5748 5748 5748 5748 5748 5748 5747 5747 5746 5745 5744 5744 5744 5744 5744 5743 5743 5744 5744 5744 5744 5744 5744 5744 5745 5745 5746 5747 5748 5748 5749
5747 5747 5747 5746 5746 5745 5745 5745 5744 5744 5744 5744 5744 5744 5744 5744 5743 5744 5743 5743 5742 5741 5741 5741 5740 5740 5740 5740 5740 5739 5739 5739 5739 5739 5739 5740 5741 5742 5743 5744 5745 5746
5744 5743 5742 5742 5741 5741 5741 5740 5740 5740 5741 5740 5740 5740 5740 5740 5740 5740 5740 5739 5739 5738 5738 5737 5737 5737 5737 5736 5736 5735 5735 5734 5734 5734 5735 5735 5736 5738 5739 5740 5742 5743
5740 5739 5739 5738 5737 5737 5737 5736 5736 5737 5737 5736 5736 5736 5736 5736 5737 5737 5736 5736 5736 5736 5735 5735 5734 5734 5733 5733 5732 5731 5731 5730 5729 5730 5730 5731 5732 5734 5736 5737 5738 5740
5737 5736 5735 5734 5734 5733 5733 5733 5733 5733 5733 5733 5733 5733 5733 5733 5733 5733 5733 5733 5733 5733 5732 5732 5731 5731 5730 5730 5729 5728 5728 5727 5726 5726 5726 5727 5728 5729 5732 5733 5735 5736
5734 5733 5732 5731 5730 5730 5730 5730 5730 5730 5730 5730 5730 5730 5730 5730 5730 5730 5730 5730 5730 5730 5730 5730 5729 5728 5728 5727 5727 5726 5725 5724 5723 5723 5723 5723 5724 5725 5727 5729 5731 5732
5732 5731 5730 5729 5728 5728 5727 5727 5727 5727 5727 5727 5727 5727 5727 5727 5727 5728 5728 5728 5728 5728 5728 5727 5727 5726 5726 5725 5725 5724 5723 5722 5721 5720 5720 5720 5720 5721 5723 5724 5726 5728
5730 5729 5728 5727 5726 5725 5725 5725 5725 5725 5725 5725 5725 5725 5725 5725 5725 5725 5725 5726 5726 5726 5725 5725 5724 5724 5724 5723 5723 5722 5721 5720 5719 5719 5718 5718 5718 5718 5718 5720 5721 5723
5729 5728 5727 5726 5725 5724 5724 5723 5723 5723 5723 5723 5723 5723 5723 5723 5723 5723 5723 5723 5723 5723 5723 5722 5722 5722 5722 5721 5721 5721 5720 5718 5717 5717 5717 5716 5716 5715 5715 5716 5718 5719
5728 5727 5726 5725 5724 5723 5723 5722 5722 5721 5721 5721 5721 5721 5721 5721 5721 5721 5721 5721 5721 5721 5720 5720 5720 5720 5719 5719 5718 5718 5718 5716 5716 5715 5715 5714 5714 5713 5713 5714 5715 5716
5727 5726 5725 5724 5724 5723 5722 5721 5721 5720 5720 5720 5720 5720 5719 5719 5719 5719 5719 5719 5718 5718 5718 5718 5717 5717 5717 5716 5716 5716 5715 5715 5714 5714 5713 5712 5712 5712 5711 5712 5712 5713
5726 5726 5725 5724 5723 5722 5721 5721 5720 5719 5719 5718 5718 5718 5718 5718 5717 5717 5717 5717 5716 5716 5716 5716 5715 5715 5714 5714 5714 5714 5713 5713 5712 5712 5711 5710 5710 5710 5709 5709 5710 5710
5726 5725 5724 5723 5722 5722 5721 5721 5720 5719 5718 5717 5717 5717 5717 5717 5716 5715 5715 5715 5715 5714 5714 5714 5714 5713 5713 5712 5712 5712 5712 5711 5711 5711 5710 5709 5709 5708 5708 5708 5708 5708
5725 5724 5723 5723 5722 5721 5720 5720 5720 5719 5718 5717 5716 5716 5716 5716 5715 5714 5714 5714 5713 5713 5713 5713 5712 5712 5711 5711 5711 5711 5711 5710 5710 5709 5709 5708 5708 5708 5707 5707 5707 5707
5724 5723 5722 5721 5721 5720 5720 5719 5719 5719 5718 5717 5715 5715 5715 5715 5715 5714 5713 5713 5712 5712 5712 5712 5711 5711 5710 5710 5710 5710 5709 5709 5709 5709 5709 5708 5708 5707 5707 5707 5707 5706
5722 5722 5721 5720 5720 5719 5719 5718 5718 5718 5717 5716 5715 5714 5714 5714 5714 5714 5713 5712 5712 5712 5711 5711 5711 5711 5710 5709 5709 5709 5709 5709 5709 5709 5709 5708 5708 5707 5707 5707 5707 5706
5721 5720 5720 5719 5718 5718 5717 5717 5716 5716 5716 5715 5714 5714 5714 5713 5713 5713 5713 5712 5712 5711 5711 5711 5711 5710 5710 5710 5709 5709 5709 5708 5708 5709 5708 5708 5708 5707 5707 5706 5706 5706
5719 5718 5718 5718 5717 5716 5716 5715 5715 5715 5715 5714 5714 5713 5713 5713 5713 5712 5712 5712 5712 5711 5711 5711 5711 5710 5710 5710 5709 5709 5709 5708 5708 5708 5708 5707 5707 5707 5706 5706 5705 5705
5717 5716 5716 5716 5715 5715 5714 5714 5714 5713 5714 5713 5713 5713 5713 5712 5712 5712 5711 5711 5711 5711 5711 5710 5710 5710 5710 5709 5709 5709 5709 5708 5708 5708 5707 5707 5706 5706 5705 5705 5704 5703
5715 5714 5714 5714 5713 5713 5713 5712 5712 5712 5712 5712 5712 5712 5711 5711 5711 5711 5710 5710 5710 5710 5710 5710 5710 5710 5710 5709 5709 5709 5708 5708 5708 5707 5707 5706 5706 5705 5704 5703 5703 5702
5713 5712 5712 5711 5711 5711 5711 5711 5710 5710 5711 5711 5710 5710 5710 5710 5710 5710 5710 5709 5710 5710 5710 5710 5710 5710 5709 5709 5709 5708 5708 5708 5707 5707 5706 5706 5705 5704 5703 5702 5701 5700
5710 5710 5710 5709 5709 5709 5709 5709 5709 5709 5709 5709 5709 5709 5709 5709 5709 5709 5709 5709 5709 5709 5709 5709 5709 5709 5709 5709 5708 5708 5707 5707 5707 5706 5706 5705 5704 5703 5702 5701 5700 5699
5708 5708 5707 5707 5707 5707 5707 5707 5707 5707 5707 5708 5708 5708 5708 5708 5708 5708 5708 5708 5708 5708 5709 5708 5708 5708 5708 5708 5708 5707 5707 5706 5706 5705 5704 5704 5703 5702 5700 5699 5698 5697
5706 5706 5705 5705 5705 5705 5706 5706 5706 5706 5706 5706 5707 5707 5707 5707 5707 5707 5707 5708 5708 5708 5708 5708 5707 5707 5707 5707 5707 5706 5705 5705 5704 5704 5703 5702 5701 5700 5698 5697 5696 5694
5704 5704 5704 5703 5704 5704 5704 5704 5705 5705 5705 5705 5705 5706 5706 5706 5706 5707 5707 5707 5707 5706 5706 5706 5706 5706 5706 5705 5705 5705 5704 5703 5703 5702 5701 5700 5699 5697 5696 5695 5693 5692
5702 5702 5702 5702 5702 5702 5703 5703 5703 5704 5704 5704 5704 5704 5705 5705 5705 5706 5706 5706 5706 5706 5705 5705 5705 5704 5704 5703 5703 5703 5702 5701 5700 5700 5699 5698 5696 5695 5694 5693 5691 5690